Oxford, AL

3:46 PM CST on January 17, 2017 (GMT -0600)
Anniston Metro

Weather History for KANB - December, 2012

Change the Weather History Date:

Friday, December 21, 2012

  Actual Average Record
Temperature  
Mean Temperature 40 °F 44 °F  
Max Temperature 48 °F 55 °F 77 °F (2013)
Min Temperature 32 °F 34 °F 16 °F (1945)
Degree Days  
Heating Degree Days 25    
Month to date heating degree days 225  
Since 1 July heating degree days 817  
Moisture  
Dew Point 15 °F    
Average Humidity 41    
Maximum Humidity 59    
Minimum Humidity 23    
Precipitation  
Precipitation 0.00 in 0.12 in 1.38 in (1962)
Month to date precipitation 3.30 2.89  
Year to date precipitation 42.76 48.44  
Sea Level Pressure  
Sea Level Pressure 30.18 in    
Wind  
Wind Speed 13 mph (West)    
Max Wind Speed 26 mph    
Max Gust Speed 35 mph    
Visibility 10 miles    
Events      
T = Trace of Precipitation, MM = Missing Value Source: NWS Daily Summary

Daily Weather History Graph

Daily Weather History Graph

Search for Another Location

Airport or City:

Trip Planner

Search our weather history database for the weather conditions in past years. The results will help you decide how hot, cold, wet, or windy it might be!

Date:

Astronomy

Dec. 21, 2012 Rise Set
Actual Time 6:44 AM CST 4:39 PM CST
Civil Twilight 6:16 AM CST 5:07 PM CST
Nautical Twilight 5:45 AM CST 5:38 PM CST
Astronomical Twilight 5:14 AM CST 6:08 PM CST
Moon 12:15 PM CST (12/21) 12:42 AM CST (12/21)
Length of Visible Light 10h 50m
Length of Day
9h 55m
Waxing Gibbous, 65% of the Moon is Illuminated
Dec 21
Waxing Gibbous
Dec 28
Full
Jan 4
Last Quarter
Jan 11
New
Jan 18
First Quarter

Hourly Weather History & Observations

Time (CST) Temp. Windchill Dew Point Humidity Pressure Visibility Wind Dir Wind Speed Gust Speed Precip Events Conditions
12:53 AM 37.9 °F 29.6 °F 21.0 °F 51% 30.04 in 10.0 mi West 13.8 mph 21.9 mph N/A   Clear
1:53 AM 37.0 °F 27.7 °F 21.0 °F 52% 30.05 in 10.0 mi West 16.1 mph 21.9 mph N/A   Clear
2:53 AM 36.0 °F 28.0 °F 19.0 °F 50% 30.08 in 10.0 mi West 11.5 mph - N/A   Clear
3:53 AM 35.1 °F 26.9 °F 18.0 °F 50% 30.09 in 10.0 mi West 11.5 mph - N/A   Clear
4:53 AM 35.1 °F 25.5 °F 18.0 °F 50% 30.11 in 10.0 mi West 15.0 mph 19.6 mph N/A   Clear
5:53 AM 33.1 °F 25.5 °F 18.0 °F 54% 30.13 in 10.0 mi West 9.2 mph - N/A   Clear
6:53 AM 32.0 °F 23.6 °F 19.0 °F 59% 30.16 in 10.0 mi WSW 10.4 mph - N/A   Clear
7:53 AM 35.1 °F 25.9 °F 18.0 °F 50% 30.17 in 10.0 mi West 13.8 mph 19.6 mph N/A   Clear
8:53 AM 37.0 °F 28.5 °F 18.0 °F 46% 30.19 in 10.0 mi WNW 13.8 mph 21.9 mph N/A   Clear
9:53 AM 39.9 °F 32.9 °F 17.1 °F 40% 30.20 in 10.0 mi West 11.5 mph 27.6 mph N/A   Clear
10:53 AM 43.0 °F 35.1 °F 17.1 °F 35% 30.19 in 10.0 mi West 17.3 mph 26.5 mph N/A   Clear
11:53 AM 45.0 °F 36.9 °F 15.1 °F 30% 30.17 in 10.0 mi West 20.7 mph 29.9 mph N/A   Clear
12:53 PM 46.9 °F - 15.1 °F 28% 30.16 in 10.0 mi WNW 18.4 mph 28.8 mph N/A   Clear
1:53 PM 48.0 °F - 12.9 °F 24% 30.15 in 10.0 mi West 16.1 mph 27.6 mph N/A   Clear
2:53 PM 48.0 °F - 12.0 °F 24% 30.15 in 10.0 mi West 16.1 mph 25.3 mph N/A   Clear
3:53 PM 46.9 °F - 10.9 °F 23% 30.17 in 10.0 mi WNW 13.8 mph 23.0 mph N/A   Clear
4:21 PM 44.6 °F 40.7 °F 12.2 °F 27% 30.15 in 10.0 mi WNW 6.9 mph 18.4 mph N/A   Partly Cloudy
4:53 PM 44.1 °F 37.7 °F 10.9 °F 26% 30.19 in 10.0 mi WNW 12.7 mph 23.0 mph N/A   Clear
5:53 PM 43.0 °F 36.8 °F 10.9 °F 27% 30.22 in 10.0 mi West 11.5 mph 23.0 mph N/A   Clear
6:53 PM 39.0 °F 34.0 °F 14.0 °F 36% 30.25 in 10.0 mi West 6.9 mph 17.3 mph N/A   Clear
7:53 PM 37.9 °F 32.1 °F 15.1 °F 39% 30.27 in 10.0 mi West 8.1 mph - N/A   Clear
8:53 PM 39.9 °F 34.5 °F 12.0 °F 32% 30.28 in 10.0 mi West 8.1 mph 18.4 mph N/A   Clear
9:53 PM 37.9 °F 30.0 °F 12.9 °F 36% 30.30 in 10.0 mi WNW 12.7 mph 18.4 mph N/A   Clear
10:53 PM 36.0 °F 29.0 °F 14.0 °F 41% 30.31 in 10.0 mi West 9.2 mph - N/A   Clear
11:53 PM 32.0 °F 26.4 °F 15.1 °F 50% 30.30 in 10.0 mi WSW 5.8 mph - N/A   Clear